Home   Weather   Gelsenkirchen   Past weeks

Flag for Germany Past Weather in Gelsenkirchen, North Rhine-Westphalia, Germany — Yesterday and Last 2 Weeks

Now
39 °F

Sunny.


Feels Like: 35 °F
Forecast: 24 / 36 °F
Wind: 6 mph from Northeast

Location: Duesseldorf

Current Time: Jan 19, 2017 at 4:25:37 pm

Latest Report: Jan 19, 2017 at 3:50 pm


Visibility: 10 mi

Pressure: 30.60 "Hg

Humidity: 39%

Dew Point: 16 °F

Location of GelsenkirchenLocation

Past Weather in Gelsenkirchen — Graph

°F

Gelsenkirchen Temperature Yesterday

Maximum temperature yesterday: 34 °F (at 3:50 pm)
Minimum temperature yesterday: 19 °F (at 7:20 am)
Average temperature yesterday: 26 °F

High & Low Weather Summary for the Past Weeks

 TemperatureHumidityPressure
High46 °F (Jan 11, 2:20 pm)100% (Jan 6, 4:50 am)30.74 "Hg (Jan 6, 4:50 am)
Low16 °F (Jan 6, 4:50 am)39% (Jan 19, 2:50 pm)28.94 "Hg (Jan 13, 1:20 am)
Average33 °F85%30.20 "Hg
* Reported Jan 4 3:20 pm — Jan 19 3:20 pm, Gelsenkirchen, Weather by CustomWeather, © 2017

Note: Actual official high and low records may vary slightly from our data, if they occured in-between our weather recording intervals... More about our weather records

Advertising

Gelsenkirchen Weather History for the Previous 24 Hours

Scroll right to see more
 ConditionsComfort  
Time TempWeatherWind HumidityBarometerVisibility
3:20 pm
Thu, Jan 19
41 °FPassing clouds.6 mph39%30.60 "HgN/A
2:50 pm41 °FSunny.7 mph39%30.60 "Hg10 mi
2:20 pm39 °FSunny.7 mph42%30.60 "Hg10 mi
1:50 pm39 °FPassing clouds.7 mph45%30.60 "HgN/A
1:20 pm37 °FSunny.2 mph52%30.63 "Hg10 mi
12:50 pm36 °FPassing clouds.3 mph56%30.63 "HgN/A
12:20 pm34 °FSunny.2 mph65%30.63 "Hg10 mi
11:50 am32 °FSunny.5 mph64%30.66 "Hg10 mi
11:20 am32 °FSunny.2 mph64%30.66 "Hg10 mi
10:50 am32 °FSunny.1 mph69%30.66 "Hg10 mi
10:20 am28 °FSunny.1 mph74%30.66 "Hg10 mi
9:50 am28 °FSunny.1 mph80%30.66 "Hg10 mi
9:20 am25 °FSunny.1 mph86%30.66 "Hg10 mi
8:50 am23 °FSunny.2 mph93%30.66 "Hg10 mi
8:20 am23 °FClear.1 mph93%30.63 "Hg10 mi
7:50 am23 °FClear.1 mph86%30.63 "Hg10 mi
7:20 am21 °FClear.1 mph93%30.63 "Hg10 mi
6:50 am19 °FClear.2 mph93%30.63 "Hg10 mi
6:20 am18 °FClear.2 mph93%30.63 "Hg10 mi
5:50 am19 °FClear.3 mph86%30.63 "Hg10 mi
5:20 am19 °FClear.3 mph86%30.63 "Hg10 mi
4:50 am19 °FClear.2 mph86%30.66 "Hg10 mi
4:20 am19 °FClear.2 mph93%30.66 "Hg10 mi
3:50 am19 °FClear.2 mph93%30.66 "Hg10 mi
3:20 am21 °FClear.1 mph86%30.66 "Hg10 mi
2:50 am19 °FClear.2 mph93%30.66 "Hg10 mi
2:20 am19 °FClear.2 mph93%30.66 "Hg10 mi
1:50 am19 °FClear.1 mph93%30.66 "Hg10 mi
1:20 am21 °FClear.1 mph93%30.66 "Hg10 mi
12:50 am21 °FClear.2 mph93%30.66 "Hg10 mi
12:20 am21 °FClear.2 mph93%30.66 "Hg10 mi
11:50 pm
Wed, Jan 18
25 °FClear.2 mph86%30.66 "Hg10 mi
11:20 pm25 °FClear.1 mph86%30.66 "Hg10 mi
10:50 pm25 °FClear.2 mph86%30.66 "Hg10 mi
10:20 pm27 °FClear.3 mph80%30.66 "Hg10 mi
9:50 pm27 °FClear.2 mph80%30.66 "Hg10 mi
9:20 pm27 °FClear.5 mph80%30.66 "Hg10 mi
8:50 pm28 °FClear.3 mph74%30.66 "Hg10 mi
8:20 pm28 °FClear.3 mph74%30.66 "Hg10 mi
7:50 pm30 °FClear.6 mph69%30.66 "Hg10 mi
7:20 pm30 °FClear.6 mph69%30.66 "Hg10 mi
6:50 pm30 °FClear.6 mph69%30.66 "Hg10 mi
6:20 pm30 °FClear.6 mph75%30.66 "Hg10 mi
5:50 pm30 °FClear.3 mph75%30.66 "Hg10 mi
5:20 pm32 °FClear.5 mph69%30.66 "Hg10 mi
4:50 pm32 °FSunny.7 mph69%30.69 "Hg10 mi
4:20 pm34 °FSunny.6 mph65%30.66 "Hg10 mi
Weather by CustomWeather, © 2017

See weather overviewHow to use our weather pages